QPF
0.00 0.00 0.00 0.00 0.00 0.00 0.00 0.00 0.00 0.00 0.00 0.00 0.00 0.00 0.00 0.00 0.00 0.00 0.00 0.00 0.00 0.00 0.00 0.00 0.00 0.00 0.00 0.00 0.00 0.00 0.00 0.00 0.00 0.00 0.00 0.00 0.00 0.00 0.00 0.00 0.00 0.00 0.00 0.00 0.00 0.00 0.00 0.00 0.00
0.00 0.00 0.00 0.00 0.00 0.00 0.00 0.00 0.00 0.00 0.00 0.00 0.00 0.00 0.00 0.00 0.00 0.00 0.00 0.00 0.00 0.00 0.00 0.00 0.00 0.00 0.00 0.00 0.00 0.00 0.00 0.00 0.00 0.00 0.00 0.00 0.00 0.00 0.00 0.00 0.00 0.00 0.00 0.00 0.00 0.00 0.00 0.00 0.00
0.00 0.00 0.00 0.00 0.00 0.00 0.00 0.00 0.00 0.00 0.00 0.00 0.00 0.00 0.00 0.00 0.00 0.00 0.00 0.00 0.00 0.00 0.00 0.00 0.00 0.00 0.00 0.00 0.00 0.00 0.00 0.00 0.00 0.00 0.00 0.00 0.00 0.00 0.00 0.00 0.00 0.00 0.00 0.00 0.00 0.00 0.00 0.00 0.00
0.00 0.00 0.00 0.00 0.00 0.00 0.00 0.00 0.00 0.00 0.00 0.00 0.00 0.00 0.00 0.00 0.00 0.00 0.00 0.00 0.00 0.00 0.00 0.00 0.00 0.00 0.00 0.00 0.00 0.00 0.00 0.00 0.00 0.00 0.00 0.00 0.00 0.00 0.00 0.00 0.00 0.00 0.00 0.00 0.00 0.00 0.00 0.00 0.00
0.00 0.00 0.00 0.00 0.00 0.00 0.00 0.00 0.00 0.00 0.00 0.00 0.00 0.00 0.00 0.00 0.00 0.00 0.00 0.00 0.00 0.00 0.00 0.00 0.00 0.00 0.00 0.00 0.00 0.00 0.00 0.00 0.00 0.00 0.00 0.00 0.00 0.00 0.00 0.00 0.00 0.00 0.00 0.00 0.00 0.00 0.00 0.00 0.00
0.00 0.00 0.00 0.00 0.00 0.00 0.00 0.00 0.00 0.00 0.00 0.00 0.00 0.00 0.00 0.00 0.00 0.00 0.00 0.00 0.00 0.00 0.00 0.00 0.00 0.00 0.00 0.00 0.00 0.00 0.00 0.00 0.00 0.00 0.00 0.00 0.00 0.00 0.00 0.00 0.00 0.00 0.00 0.00 0.00 0.00 0.00 0.00 0.00
0.00 0.00 0.00 0.00 0.00 0.00 0.00 0.00 0.00 0.00 0.00 0.00 0.00 0.00 0.00 0.00 0.00 0.00 0.00 0.00 0.00 0.00 0.00 0.00 0.00 0.00 0.00 0.00 0.00 0.00 0.00 0.00 0.00 0.00 0.00 0.00 0.00 0.00 0.00 0.00 0.00 0.00 0.00 0.00 0.00 0.00 0.00 0.00 0.00
0.00 0.00 0.00 0.00 0.00 0.00 0.00 0.00 0.00 0.00 0.00 0.00 0.00 0.00 0.00 0.00 0.00 0.00 0.00 0.00 0.00 0.00 0.00 0.00 0.00 0.00 0.00 0.00 0.00 0.00 0.00 0.00 0.00 0.00 0.00 0.00 0.00 0.00 0.00 0.00 0.00 0.00 0.00 0.00 0.00 0.00 0.00 0.00 0.00
0.00 0.00 0.00 0.00 0.00 0.00 0.00 0.00 0.00 0.00 0.00 0.00 0.00 0.00 0.00 0.00 0.00 0.00 0.00 0.00 0.00 0.00 0.00 0.00 0.00 0.00 0.00 0.00 0.00 0.00 0.00 0.00 0.00 0.00 0.00 0.00 0.00 0.00 0.00 0.00 0.00 0.00 0.00 0.00 0.00 0.00 0.00 0.00 0.00
0.00 0.00 0.00 0.00 0.00 0.00 0.00 0.00 0.00 0.00 0.00 0.00 0.00 0.00 0.00 0.00 0.00 0.00 0.00 0.00 0.00 0.00 0.00 0.00 0.00 0.00 0.00 0.00 0.00 0.00 0.00 0.00 0.00 0.00 0.00 0.00 0.00 0.00 0.00 0.00 0.00 0.00 0.00 0.00 0.00 0.00 0.00 0.00 0.00
0.00 0.00 0.00 0.00 0.00 0.00 0.00 0.00 0.00 0.00 0.00 0.00 0.00 0.00 0.00 0.00 0.00 0.00 0.00 0.00 0.00 0.00 0.00 0.00 0.00 0.00 0.00 0.00 0.00 0.00 0.00 0.00 0.00 0.00 0.00 0.00 0.00 0.00 0.00 0.00 0.00 0.00 0.00 0.00 0.00 0.00 0.00 0.00 0.00
0.00 0.00 0.00 0.00 0.00 0.00 0.00 0.00 0.00 0.00 0.00 0.00 0.00 0.00 0.00 0.00 0.00 0.00 0.00 0.00 0.00 0.00 0.00 0.00 0.00 0.00 0.00 0.00 0.00 0.00 0.00 0.00 0.00 0.00 0.00 0.00 0.00 0.00 0.00 0.00 0.00 0.00 0.00 0.00 0.00 0.00 0.00 0.00 0.00
0.00 0.00 0.00 0.00 0.00 0.00 0.00 0.00 0.00 0.00 0.00 0.00 0.00 0.00 0.00 0.00 0.00 0.00 0.00 0.00 0.00 0.00 0.00 0.00 0.00 0.00 0.00 0.00 0.00 0.00 0.00 0.00 0.00 0.00 0.00 0.00 0.00 0.00 0.00 0.00 0.00 0.00 0.00 0.00 0.00 0.00 0.00 0.00 0.00
0.00 0.00 0.00 0.00 0.00 0.00 0.00 0.00 0.00 0.00 0.00 0.00 0.00 0.00 0.00 0.00 0.00 0.00 0.00 0.00 0.00 0.00 0.00 0.00 0.00 0.00 0.00 0.00 0.00 0.00 0.00 0.00 0.00 0.00 0.00 0.00 0.00 0.00 0.00 0.00 0.00 0.00 0.00 0.00 0.00 0.00 0.00 0.00 0.00
0.00 0.00 0.00 0.00 0.00 0.00 0.00 0.00 0.00 0.00 0.00 0.00 0.00 0.00 0.00 0.00 0.00 0.00 0.00 0.00 0.00 0.00 0.00 0.00 0.00 0.00 0.00 0.00 0.00 0.00 0.00 0.00 0.00 0.00 0.00 0.00 0.00 0.00 0.00 0.00 0.00 0.00 0.00 0.00 0.00 0.00 0.00 0.00 0.00
0.00 0.00 0.00 0.00 0.00 0.00 0.00 0.00 0.00 0.00 0.00 0.00 0.00 0.00 0.00 0.00 0.00 0.00 0.00 0.00 0.00 0.00 0.00 0.00 0.00 0.00 0.00 0.00 0.00 0.00 0.00 0.00 0.00 0.00 0.00 0.00 0.00 0.00 0.00 0.00 0.00 0.00 0.00 0.00 0.00 0.00 0.00 0.00 0.00
0.00 0.00 0.00 0.00 0.00 0.00 0.00 0.00 0.00 0.00 0.00 0.00 0.00 0.00 0.00 0.00 0.00 0.00 0.00 0.00 0.00 0.00 0.00 0.00 0.00 0.00 0.00 0.00 0.00 0.00 0.00 0.00 0.00 0.00 0.00 0.00 0.00 0.00 0.00 0.00 0.00 0.00 0.00 0.00 0.00 0.00 0.00 0.00 0.00
0.00 0.00 0.00 0.00 0.00 0.00 0.00 0.00 0.00 0.00 0.00 0.00 0.00 0.00 0.00 0.00 0.00 0.00 0.00 0.00 0.00 0.00 0.00 0.00 0.00 0.00 0.00 0.00 0.00 0.00 0.00 0.00 0.00 0.00 0.00 0.00 0.00 0.00 0.00 0.00 0.00 0.00 0.00 0.00 0.00 0.00 0.00 0.00 0.00
0.00 0.00 0.00 0.00 0.00 0.00 0.00 0.00 0.00 0.00 0.00 0.00 0.00 0.00 0.00 0.00 0.00 0.00 0.00 0.00 0.00 0.00 0.00 0.00 0.00 0.00 0.00 0.00 0.00 0.00 0.00 0.00 0.00 0.00 0.00 0.00 0.00 0.00 0.00 0.00 0.00 0.00 0.00 0.00 0.00 0.00 0.00 0.00 0.00
0.00 0.00 0.00 0.00 0.00 0.00 0.00 0.00 0.00 0.00 0.00 0.00 0.00 0.00 0.00 0.00 0.00 0.00 0.00 0.00 0.00 0.00 0.00 0.00 0.00 0.00 0.00 0.00 0.00 0.00 0.00 0.00 0.00 0.00 0.00 0.00 0.00 0.00 0.00 0.00 0.00 0.00 0.00 0.00 0.00 0.00 0.00 0.00 0.00
0.00 0.00 0.00 0.00 0.00 0.00 0.00 0.00 0.00 0.00 0.00 0.00 0.00 0.00 0.00 0.00 0.00 0.00 0.00 0.00 0.00 0.00 0.00 0.00 0.00 0.00 0.00 0.00 0.00 0.00 0.00 0.00 0.00 0.00 0.00 0.00 0.00 0.00 0.00 0.00 0.00 0.00 0.00 0.00 0.00 0.00 0.00 0.00 0.00
0.00 0.00 0.00 0.00 0.00 0.00 0.00 0.00 0.00 0.00 0.00 0.00 0.00 0.00 0.00 0.00 0.00 0.00 0.00 0.00 0.00 0.00 0.00 0.00 0.00 0.00 0.00 0.00 0.00 0.00 0.00 0.00 0.00 0.00 0.00 0.00 0.00 0.00 0.00 0.00 0.00 0.00 0.00 0.00 0.00 0.00 0.00 0.00 0.00
0.00 0.00 0.00 0.00 0.00 0.00 0.00 0.00 0.00 0.00 0.00 0.00 0.00 0.00 0.00 0.00 0.00 0.00 0.00 0.00 0.00 0.00 0.00 0.00 0.00 0.00 0.00 0.00 0.00 0.00 0.00 0.00 0.00 0.00 0.00 0.00 0.00 0.00 0.00 0.00 0.00 0.00 0.00 0.00 0.00 0.00 0.00 0.00 0.00
0.00 0.00 0.00 0.00 0.00 0.00 0.00 0.00 0.00 0.00 0.00 0.00 0.00 0.00 0.00 0.00 0.00 0.00 0.00 0.00 0.00 0.00 0.00 0.00 0.00 0.00 0.00 0.00 0.00 0.00 0.00 0.00 0.00 0.00 0.00 0.00 0.00 0.00 0.00 0.00 0.00 0.00 0.00 0.00 0.00 0.00 0.00 0.00 0.00
0.00 0.00 0.00 0.00 0.00 0.00 0.00 0.00 0.00 0.00 0.00 0.00 0.00 0.00 0.00 0.00 0.00 0.00 0.00 0.00 0.00 0.00 0.00 0.00 0.00 0.00 0.00 0.00 0.00 0.00 0.00 0.00 0.00 0.00 0.00 0.00 0.00 0.00 0.00 0.00 0.00 0.00 0.00 0.00 0.00 0.00 0.00 0.00 0.00
0.00 0.00 0.00 0.00 0.00 0.00 0.00 0.00 0.00 0.00 0.00 0.00 0.00 0.00 0.00 0.00 0.00 0.00 0.00 0.00 0.00 0.00 0.00 0.00 0.00 0.00 0.00 0.00 0.00 0.00 0.00 0.00 0.00 0.00 0.00 0.00 0.00 0.00 0.00 0.00 0.00 0.00 0.00 0.00 0.00 0.00 0.00 0.00 0.00
0.00 0.00 0.00 0.00 0.00 0.00 0.00 0.00 0.00 0.00 0.00 0.00 0.00 0.00 0.00 0.00 0.00 0.00 0.00 0.00 0.00 0.00 0.00 0.00 0.00 0.00 0.00 0.00 0.00 0.00 0.00 0.00 0.00 0.00 0.00 0.00 0.00 0.00 0.00 0.00 0.00 0.00 0.00 0.00 0.00 0.00 0.00 0.00 0.00
0.00 0.00 0.00 0.00 0.00 0.00 0.00 0.00 0.00 0.00 0.00 0.00 0.00 0.00 0.00 0.00 0.00 0.00 0.00 0.00 0.00 0.00 0.00 0.00 0.00 0.00 0.00 0.00 0.00 0.00 0.00 0.00 0.00 0.00 0.00 0.00 0.00 0.00 0.00 0.00 0.00 0.00 0.00 0.00 0.00 0.00 0.00 0.00 0.00
0.00 0.00 0.00 0.00 0.00 0.00 0.00 0.00 0.00 0.00 0.00 0.00 0.00 0.00 0.00 0.00 0.00 0.00 0.00 0.00 0.00 0.00 0.00 0.00 0.00 0.00 0.00 0.00 0.00 0.00 0.00 0.00 0.00 0.00 0.00 0.00 0.00 0.00 0.00 0.00 0.00 0.00 0.00 0.00 0.00 0.00 0.00 0.00 0.00
0.00 0.00 0.00 0.00 0.00 0.00 0.00 0.00 0.00 0.00 0.00 0.00 0.00 0.00 0.00 0.00 0.00 0.00 0.00 0.00 0.00 0.00 0.00 0.00 0.00 0.00 0.00 0.00 0.00 0.00 0.00 0.00 0.00 0.00 0.00 0.00 0.00 0.00 0.00 0.00 0.00 0.00 0.00 0.00 0.00 0.00 0.00 0.00 0.00
MSLP
1015.06 1015.87 1016.89 1018.01 1019.06 1019.94 1020.55 1020.86 1020.89 1020.71 1020.41 1020.08 1019.79 1019.57 1019.43 1019.31 1019.20 1019.05 1018.86 1018.65 1018.46 1018.35 1018.35 1018.51 1018.83 1019.26 1019.78 1020.31 1020.81 1021.24 1021.59 1021.86 1022.09 1022.30 1022.54 1022.80 1023.10 1023.40 1023.70 1023.97 1024.18 1024.32 1024.42 1024.47 1024.50 1024.52 1024.54 1024.57 1024.61
1015.44 1016.43 1017.57 1018.72 1019.73 1020.48 1020.89 1020.96 1020.73 1020.30 1019.79 1019.31 1018.91 1018.64 1018.48 1018.40 1018.34 1018.26 1018.16 1018.04 1017.95 1017.92 1018.02 1018.27 1018.66 1019.16 1019.73 1020.30 1020.83 1021.28 1021.65 1021.95 1022.20 1022.45 1022.72 1023.01 1023.32 1023.65 1023.96 1024.23 1024.44 1024.60 1024.71 1024.78 1024.83 1024.87 1024.91 1024.95 1024.99
1015.95 1017.06 1018.24 1019.36 1020.25 1020.82 1021.01 1020.84 1020.38 1019.76 1019.10 1018.52 1018.07 1017.80 1017.67 1017.64 1017.64 1017.65 1017.63 1017.60 1017.59 1017.66 1017.84 1018.16 1018.60 1019.15 1019.75 1020.33 1020.86 1021.32 1021.69 1022.00 1022.27 1022.53 1022.81 1023.12 1023.44 1023.77 1024.08 1024.35 1024.57 1024.73 1024.86 1024.95 1025.03 1025.09 1025.17 1025.24 1025.31
1016.57 1017.72 1018.88 1019.88 1020.61 1020.96 1020.93 1020.55 1019.92 1019.17 1018.44 1017.83 1017.40 1017.17 1017.10 1017.14 1017.22 1017.29 1017.35 1017.39 1017.45 1017.59 1017.83 1018.19 1018.67 1019.22 1019.81 1020.38 1020.89 1021.32 1021.67 1021.97 1022.25 1022.52 1022.81 1023.13 1023.46 1023.79 1024.10 1024.36 1024.58 1024.75 1024.89 1025.00 1025.11 1025.23 1025.34 1025.46 1025.58
1017.26 1018.39 1019.45 1020.29 1020.81 1020.95 1020.71 1020.17 1019.43 1018.63 1017.90 1017.34 1016.99 1016.84 1016.86 1016.97 1017.11 1017.24 1017.34 1017.43 1017.54 1017.70 1017.97 1018.34 1018.81 1019.34 1019.89 1020.41 1020.87 1021.26 1021.59 1021.87 1022.14 1022.43 1022.74 1023.07 1023.41 1023.75 1024.05 1024.32 1024.53 1024.71 1024.86 1025.01 1025.16 1025.31 1025.49 1025.66 1025.84
1017.94 1018.99 1019.90 1020.55 1020.85 1020.79 1020.39 1019.75 1018.97 1018.20 1017.55 1017.10 1016.86 1016.82 1016.92 1017.10 1017.29 1017.45 1017.57 1017.67 1017.78 1017.95 1018.21 1018.56 1018.99 1019.47 1019.95 1020.40 1020.80 1021.14 1021.43 1021.70 1021.98 1022.29 1022.63 1022.99 1023.36 1023.71 1024.02 1024.29 1024.51 1024.69 1024.86 1025.03 1025.21 1025.41 1025.64 1025.87 1026.10
1018.53 1019.46 1020.19 1020.63 1020.74 1020.51 1020.01 1019.33 1018.58 1017.91 1017.38 1017.07 1016.96 1017.03 1017.22 1017.44 1017.64 1017.80 1017.90 1017.98 1018.08 1018.23 1018.46 1018.77 1019.15 1019.57 1019.98 1020.36 1020.69 1020.98 1021.25 1021.52 1021.82 1022.16 1022.54 1022.94 1023.35 1023.73 1024.06 1024.34 1024.56 1024.75 1024.93 1025.11 1025.32 1025.56 1025.82 1026.10 1026.38
1018.95 1019.72 1020.27 1020.52 1020.47 1020.12 1019.57 1018.91 1018.25 1017.71 1017.34 1017.17 1017.19 1017.35 1017.58 1017.81 1018.00 1018.13 1018.20 1018.24 1018.31 1018.43 1018.63 1018.90 1019.24 1019.60 1019.95 1020.27 1020.56 1020.82 1021.08 1021.36 1021.69 1022.08 1022.51 1022.97 1023.42 1023.84 1024.19 1024.48 1024.71 1024.91 1025.09 1025.28 1025.50 1025.76 1026.04 1026.34 1026.64
1019.15 1019.77 1020.15 1020.24 1020.06 1019.65 1019.10 1018.50 1017.96 1017.56 1017.33 1017.29 1017.41 1017.62 1017.86 1018.07 1018.22 1018.29 1018.32 1018.32 1018.36 1018.47 1018.65 1018.90 1019.21 1019.54 1019.86 1020.16 1020.42 1020.67 1020.94 1021.25 1021.63 1022.07 1022.56 1023.07 1023.57 1024.02 1024.40 1024.71 1024.95 1025.14 1025.32 1025.51 1025.73 1025.98 1026.26 1026.56 1026.87
1019.16 1019.63 1019.85 1019.82 1019.56 1019.13 1018.61 1018.10 1017.68 1017.41 1017.30 1017.35 1017.52 1017.73 1017.94 1018.10 1018.18 1018.20 1018.17 1018.16 1018.19 1018.29 1018.48 1018.75 1019.07 1019.40 1019.72 1020.02 1020.29 1020.56 1020.86 1021.21 1021.64 1022.13 1022.66 1023.22 1023.75 1024.23 1024.64 1024.95 1025.20 1025.39 1025.57 1025.75 1025.96 1026.20 1026.46 1026.75 1027.03
1019.03 1019.36 1019.46 1019.33 1019.03 1018.61 1018.16 1017.74 1017.42 1017.24 1017.21 1017.30 1017.46 1017.64 1017.79 1017.87 1017.88 1017.83 1017.77 1017.75 1017.79 1017.92 1018.14 1018.45 1018.80 1019.17 1019.53 1019.86 1020.17 1020.48 1020.82 1021.22 1021.68 1022.21 1022.78 1023.36 1023.91 1024.40 1024.82 1025.14 1025.39 1025.59 1025.77 1025.95 1026.14 1026.36 1026.61 1026.86 1027.11
1018.86 1019.08 1019.08 1018.89 1018.57 1018.18 1017.78 1017.44 1017.20 1017.08 1017.08 1017.16 1017.27 1017.38 1017.43 1017.43 1017.37 1017.27 1017.19 1017.17 1017.23 1017.41 1017.68 1018.05 1018.46 1018.88 1019.30 1019.68 1020.05 1020.41 1020.79 1021.23 1021.72 1022.26 1022.84 1023.42 1023.97 1024.46 1024.88 1025.20 1025.47 1025.68 1025.86 1026.05 1026.24 1026.45 1026.67 1026.89 1027.09
1018.77 1018.88 1018.80 1018.58 1018.26 1017.89 1017.55 1017.26 1017.07 1016.98 1016.96 1016.99 1017.03 1017.04 1017.00 1016.91 1016.79 1016.66 1016.56 1016.55 1016.65 1016.87 1017.19 1017.61 1018.08 1018.56 1019.03 1019.48 1019.90 1020.32 1020.74 1021.20 1021.70 1022.23 1022.79 1023.35 1023.88 1024.35 1024.76 1025.09 1025.37 1025.60 1025.81 1026.02 1026.22 1026.43 1026.63 1026.82 1026.98
1018.84 1018.86 1018.72 1018.47 1018.16 1017.82 1017.52 1017.26 1017.08 1016.97 1016.91 1016.87 1016.82 1016.75 1016.62 1016.47 1016.29 1016.14 1016.05 1016.04 1016.16 1016.40 1016.76 1017.21 1017.71 1018.24 1018.76 1019.25 1019.72 1020.18 1020.64 1021.10 1021.59 1022.10 1022.62 1023.13 1023.61 1024.06 1024.45 1024.79 1025.09 1025.35 1025.61 1025.85 1026.08 1026.30 1026.50 1026.66 1026.78
1019.08 1019.02 1018.84 1018.58 1018.28 1017.96 1017.68 1017.45 1017.26 1017.11 1017.00 1016.88 1016.76 1016.60 1016.42 1016.22 1016.02 1015.86 1015.76 1015.76 1015.87 1016.11 1016.46 1016.90 1017.40 1017.94 1018.48 1019.01 1019.51 1019.99 1020.46 1020.93 1021.39 1021.86 1022.32 1022.77 1023.20 1023.60 1023.97 1024.32 1024.64 1024.95 1025.25 1025.54 1025.82 1026.06 1026.27 1026.41 1026.50
1019.43 1019.32 1019.12 1018.86 1018.57 1018.28 1018.02 1017.79 1017.58 1017.40 1017.23 1017.05 1016.87 1016.66 1016.45 1016.23 1016.03 1015.86 1015.76 1015.74 1015.82 1016.02 1016.32 1016.71 1017.18 1017.69 1018.22 1018.75 1019.27 1019.76 1020.24 1020.68 1021.11 1021.52 1021.92 1022.30 1022.67 1023.02 1023.37 1023.72 1024.07 1024.43 1024.78 1025.12 1025.44 1025.72 1025.94 1026.08 1026.14
1019.80 1019.67 1019.46 1019.22 1018.96 1018.71 1018.47 1018.23 1018.00 1017.78 1017.57 1017.35 1017.13 1016.91 1016.69 1016.48 1016.30 1016.14 1016.02 1015.97 1016.00 1016.12 1016.34 1016.64 1017.04 1017.49 1017.99 1018.50 1019.02 1019.51 1019.98 1020.40 1020.79 1021.14 1021.46 1021.77 1022.07 1022.38 1022.70 1023.05 1023.42 1023.81 1024.21 1024.60 1024.96 1025.27 1025.50 1025.64 1025.68
1020.08 1019.94 1019.77 1019.57 1019.37 1019.16 1018.94 1018.70 1018.46 1018.20 1017.95 1017.71 1017.48 1017.27 1017.08 1016.90 1016.74 1016.60 1016.48 1016.39 1016.35 1016.38 1016.49 1016.69 1016.98 1017.36 1017.80 1018.29 1018.78 1019.26 1019.71 1020.11 1020.45 1020.74 1020.99 1021.23 1021.46 1021.72 1022.00 1022.33 1022.71 1023.11 1023.54 1023.96 1024.35 1024.68 1024.93 1025.08 1025.11
1020.17 1020.08 1019.97 1019.85 1019.71 1019.55 1019.36 1019.13 1018.87 1018.59 1018.31 1018.04 1017.82 1017.64 1017.49 1017.37 1017.26 1017.14 1017.02 1016.90 1016.79 1016.73 1016.72 1016.81 1017.00 1017.30 1017.68 1018.12 1018.59 1019.05 1019.47 1019.83 1020.12 1020.35 1020.53 1020.69 1020.86 1021.06 1021.30 1021.60 1021.96 1022.36 1022.79 1023.21 1023.61 1023.95 1024.21 1024.36 1024.40
1020.05 1020.03 1020.03 1020.01 1019.96 1019.87 1019.71 1019.48 1019.19 1018.88 1018.56 1018.29 1018.07 1017.92 1017.83 1017.77 1017.72 1017.65 1017.54 1017.40 1017.25 1017.10 1017.00 1016.99 1017.09 1017.30 1017.62 1018.01 1018.45 1018.88 1019.26 1019.58 1019.82 1019.99 1020.10 1020.19 1020.28 1020.41 1020.60 1020.85 1021.17 1021.54 1021.94 1022.35 1022.73 1023.06 1023.32 1023.48 1023.53
1019.75 1019.85 1019.97 1020.08 1020.13 1020.10 1019.97 1019.73 1019.41 1019.05 1018.70 1018.40 1018.19 1018.07 1018.03 1018.04 1018.06 1018.04 1017.97 1017.84 1017.65 1017.46 1017.30 1017.21 1017.23 1017.38 1017.64 1017.99 1018.37 1018.76 1019.10 1019.37 1019.55 1019.65 1019.69 1019.71 1019.73 1019.79 1019.91 1020.10 1020.35 1020.66 1021.01 1021.36 1021.71 1022.01 1022.26 1022.43 1022.51
1019.38 1019.62 1019.88 1020.12 1020.27 1020.30 1020.17 1019.91 1019.54 1019.11 1018.71 1018.38 1018.16 1018.06 1018.07 1018.15 1018.24 1018.29 1018.27 1018.17 1017.99 1017.79 1017.59 1017.46 1017.43 1017.53 1017.73 1018.03 1018.36 1018.69 1018.98 1019.18 1019.30 1019.33 1019.30 1019.25 1019.20 1019.20 1019.24 1019.35 1019.53 1019.76 1020.02 1020.30 1020.58 1020.84 1021.06 1021.24 1021.34
1019.05 1019.44 1019.84 1020.20 1020.43 1020.50 1020.37 1020.06 1019.62 1019.11 1018.64 1018.26 1018.02 1017.94 1017.99 1018.13 1018.29 1018.42 1018.47 1018.42 1018.28 1018.08 1017.88 1017.73 1017.67 1017.72 1017.88 1018.12 1018.39 1018.66 1018.88 1019.01 1019.06 1019.02 1018.93 1018.81 1018.71 1018.63 1018.60 1018.64 1018.72 1018.85 1019.01 1019.20 1019.39 1019.59 1019.78 1019.94 1020.07
1018.86 1019.38 1019.91 1020.37 1020.66 1020.74 1020.58 1020.20 1019.67 1019.08 1018.53 1018.10 1017.83 1017.75 1017.83 1018.03 1018.26 1018.47 1018.59 1018.60 1018.51 1018.35 1018.17 1018.02 1017.94 1017.96 1018.07 1018.24 1018.45 1018.64 1018.78 1018.84 1018.82 1018.72 1018.57 1018.40 1018.24 1018.11 1018.02 1017.98 1017.97 1018.00 1018.05 1018.12 1018.22 1018.33 1018.47 1018.61 1018.75
1018.84 1019.48 1020.11 1020.63 1020.95 1021.00 1020.79 1020.34 1019.72 1019.05 1018.42 1017.93 1017.64 1017.56 1017.67 1017.91 1018.20 1018.48 1018.67 1018.75 1018.72 1018.60 1018.44 1018.30 1018.21 1018.20 1018.26 1018.37 1018.51 1018.63 1018.69 1018.68 1018.59 1018.44 1018.24 1018.03 1017.83 1017.66 1017.51 1017.40 1017.31 1017.23 1017.17 1017.13 1017.11 1017.13 1017.19 1017.29 1017.42
1018.97 1019.70 1020.38 1020.93 1021.23 1021.25 1020.97 1020.44 1019.75 1018.99 1018.31 1017.78 1017.47 1017.40 1017.53 1017.81 1018.15 1018.48 1018.73 1018.87 1018.89 1018.82 1018.69 1018.56 1018.46 1018.42 1018.44 1018.49 1018.55 1018.60 1018.59 1018.51 1018.37 1018.17 1017.94 1017.71 1017.48 1017.27 1017.09 1016.91 1016.75 1016.58 1016.41 1016.26 1016.13 1016.04 1016.01 1016.04 1016.13
1019.17 1019.94 1020.64 1021.17 1021.44 1021.40 1021.06 1020.46 1019.70 1018.90 1018.19 1017.64 1017.34 1017.27 1017.43 1017.74 1018.12 1018.50 1018.79 1018.97 1019.04 1019.00 1018.90 1018.78 1018.67 1018.61 1018.58 1018.58 1018.58 1018.55 1018.48 1018.35 1018.16 1017.93 1017.68 1017.42 1017.18 1016.95 1016.73 1016.51 1016.28 1016.03 1015.77 1015.51 1015.27 1015.07 1014.94 1014.89 1014.90
1019.34 1020.11 1020.79 1021.27 1021.48 1021.38 1020.98 1020.34 1019.55 1018.75 1018.03 1017.51 1017.22 1017.19 1017.37 1017.71 1018.11 1018.51 1018.83 1019.04 1019.14 1019.12 1019.04 1018.93 1018.83 1018.74 1018.68 1018.64 1018.59 1018.50 1018.37 1018.19 1017.96 1017.70 1017.43 1017.16 1016.90 1016.65 1016.40 1016.14 1015.86 1015.54 1015.20 1014.85 1014.51 1014.22 1013.98 1013.83 1013.75
1019.37 1020.11 1020.72 1021.14 1021.28 1021.12 1020.69 1020.03 1019.27 1018.49 1017.83 1017.35 1017.12 1017.12 1017.34 1017.69 1018.11 1018.52 1018.85 1019.08 1019.19 1019.20 1019.14 1019.04 1018.93 1018.84 1018.76 1018.67 1018.58 1018.45 1018.27 1018.04 1017.77 1017.48 1017.18 1016.88 1016.60 1016.32 1016.04 1015.74 1015.41 1015.05 1014.65 1014.23 1013.81 1013.43 1013.10 1012.84 1012.67
1019.23 1019.89 1020.42 1020.75 1020.83 1020.63 1020.19 1019.56 1018.85 1018.15 1017.57 1017.18 1017.01 1017.07 1017.32 1017.69 1018.11 1018.52 1018.85 1019.08 1019.20 1019.23 1019.18 1019.10 1019.00 1018.91 1018.81 1018.70 1018.56 1018.39 1018.16 1017.89 1017.57 1017.23 1016.89 1016.55 1016.23 1015.91 1015.59 1015.25 1014.88 1014.47 1014.03 1013.56 1013.08 1012.64 1012.23 1011.89 1011.62
Thickness
5731 5731 5730 5720 5696 5674 5677 5688 5696 5699 5703 5711 5713 5709 5703 5701 5699 5704 5724 5725 5725 5722 5716 5713 5708 5704 5700 5697 5694 5691 5687 5684 5682 5680 5677 5675 5673 5672 5671 5670 5669 5669 5668 5668 5667 5667 5667 5667 5668
5732 5731 5723 5706 5680 5665 5673 5690 5695 5701 5709 5712 5713 5712 5709 5711 5719 5724 5723 5722 5722 5720 5715 5712 5708 5703 5699 5695 5692 5688 5685 5682 5679 5677 5674 5672 5670 5668 5667 5666 5665 5664 5663 5663 5662 5662 5662 5662 5662
5733 5730 5711 5692 5677 5670 5683 5699 5702 5708 5712 5712 5711 5712 5713 5716 5724 5726 5727 5723 5721 5717 5713 5710 5706 5702 5697 5693 5690 5686 5683 5680 5677 5674 5671 5669 5667 5665 5663 5662 5660 5659 5658 5657 5657 5656 5656 5656 5656
5730 5718 5704 5687 5684 5686 5693 5703 5708 5709 5712 5712 5711 5710 5716 5726 5727 5727 5725 5722 5719 5715 5711 5708 5704 5700 5695 5691 5688 5684 5680 5677 5674 5671 5669 5666 5664 5662 5660 5658 5656 5654 5653 5652 5652 5651 5651 5651 5651
5724 5708 5693 5681 5687 5694 5700 5705 5708 5706 5709 5711 5709 5707 5711 5725 5724 5723 5722 5719 5717 5713 5709 5706 5702 5698 5693 5690 5686 5682 5678 5675 5672 5669 5666 5663 5661 5659 5656 5654 5652 5650 5649 5648 5647 5646 5646 5645 5645
5709 5699 5680 5676 5685 5695 5702 5708 5707 5705 5707 5709 5707 5706 5713 5723 5722 5719 5718 5715 5713 5710 5706 5703 5700 5696 5691 5687 5683 5679 5675 5672 5669 5666 5663 5661 5658 5655 5653 5650 5648 5646 5645 5644 5642 5641 5640 5640 5640
5704 5691 5683 5685 5685 5691 5705 5710 5707 5706 5706 5709 5710 5705 5714 5721 5718 5715 5713 5710 5707 5705 5702 5700 5697 5694 5689 5685 5681 5677 5673 5670 5666 5663 5661 5658 5655 5652 5650 5647 5645 5643 5641 5639 5638 5637 5636 5635 5634
5709 5694 5688 5684 5686 5692 5707 5711 5713 5710 5709 5715 5711 5706 5710 5716 5710 5709 5706 5703 5702 5700 5698 5696 5694 5691 5688 5684 5679 5675 5671 5667 5664 5661 5658 5655 5652 5650 5647 5644 5642 5639 5637 5635 5634 5632 5631 5630 5629
5712 5689 5680 5685 5688 5696 5708 5709 5714 5716 5712 5712 5711 5712 5714 5706 5704 5702 5699 5697 5696 5696 5695 5693 5691 5688 5685 5681 5677 5673 5669 5665 5662 5658 5655 5652 5649 5646 5644 5641 5638 5636 5634 5632 5630 5628 5627 5625 5624
5700 5683 5687 5696 5699 5702 5707 5707 5710 5710 5706 5708 5711 5712 5706 5702 5700 5699 5698 5696 5695 5695 5693 5691 5688 5685 5682 5679 5674 5671 5667 5663 5659 5656 5653 5649 5646 5643 5640 5637 5634 5632 5630 5628 5626 5624 5623 5621 5619
5701 5691 5697 5701 5704 5706 5704 5706 5709 5705 5700 5705 5707 5711 5706 5699 5697 5697 5698 5698 5699 5696 5692 5689 5686 5682 5679 5676 5672 5668 5664 5660 5656 5653 5649 5646 5642 5639 5636 5633 5630 5628 5626 5624 5622 5620 5618 5616 5614
5698 5698 5699 5703 5708 5706 5704 5705 5704 5701 5707 5715 5713 5712 5705 5699 5697 5699 5701 5700 5696 5692 5691 5688 5683 5679 5676 5673 5669 5665 5660 5656 5653 5649 5645 5642 5638 5634 5631 5628 5626 5623 5620 5618 5616 5614 5612 5610 5609
5695 5696 5701 5702 5701 5700 5700 5699 5700 5704 5711 5711 5710 5708 5703 5700 5700 5701 5700 5697 5693 5690 5688 5685 5681 5677 5673 5669 5665 5661 5657 5653 5649 5645 5641 5638 5633 5629 5626 5623 5620 5618 5615 5612 5610 5608 5606 5604 5603
5694 5694 5693 5694 5696 5696 5696 5695 5693 5703 5706 5707 5705 5702 5701 5699 5699 5697 5695 5694 5693 5691 5687 5683 5679 5675 5671 5666 5662 5659 5654 5650 5645 5641 5638 5634 5630 5625 5621 5618 5615 5612 5610 5607 5605 5603 5600 5598 5597
5689 5686 5686 5692 5694 5695 5693 5689 5690 5700 5702 5700 5697 5695 5697 5697 5697 5696 5696 5695 5693 5690 5686 5681 5677 5672 5668 5664 5660 5655 5651 5646 5642 5637 5633 5629 5625 5621 5617 5613 5610 5607 5604 5602 5599 5596 5594 5592 5590
5681 5673 5671 5684 5688 5689 5687 5677 5691 5696 5695 5692 5690 5688 5689 5692 5693 5693 5693 5693 5692 5689 5685 5681 5676 5671 5666 5661 5656 5652 5647 5642 5638 5633 5629 5625 5621 5617 5613 5609 5607 5603 5599 5596 5593 5590 5587 5585 5583
5663 5658 5664 5670 5681 5682 5679 5675 5685 5689 5688 5685 5683 5682 5683 5685 5688 5689 5689 5690 5689 5687 5683 5678 5674 5669 5663 5657 5652 5647 5642 5638 5634 5629 5625 5621 5616 5613 5609 5606 5603 5598 5593 5590 5587 5585 5581 5579 5578
5658 5659 5659 5659 5672 5672 5668 5669 5679 5681 5681 5679 5677 5677 5677 5678 5679 5680 5683 5684 5684 5682 5679 5674 5670 5665 5659 5652 5646 5640 5636 5633 5629 5625 5621 5617 5612 5608 5604 5601 5598 5593 5588 5584 5581 5579 5576 5574 5572
5661 5657 5651 5654 5665 5664 5662 5663 5671 5674 5676 5675 5673 5672 5671 5672 5673 5674 5675 5675 5675 5673 5670 5667 5663 5659 5653 5646 5640 5634 5631 5627 5623 5620 5616 5612 5608 5604 5600 5597 5593 5588 5584 5581 5577 5571 5567 5564 5559
5653 5649 5647 5652 5661 5659 5656 5659 5668 5672 5672 5671 5669 5667 5665 5666 5667 5668 5668 5667 5665 5663 5661 5659 5656 5652 5648 5643 5637 5631 5627 5623 5619 5615 5612 5609 5605 5601 5596 5592 5589 5584 5579 5575 5571 5565 5560 5557 5551
5648 5645 5648 5650 5652 5653 5652 5659 5665 5668 5668 5667 5664 5662 5660 5659 5657 5658 5658 5656 5655 5653 5651 5651 5648 5645 5641 5636 5630 5623 5619 5615 5612 5610 5608 5606 5601 5597 5593 5590 5585 5580 5575 5571 5567 5561 5554 5551 5546
5643 5652 5649 5648 5642 5636 5641 5637 5654 5658 5660 5662 5659 5655 5653 5652 5651 5650 5649 5647 5644 5642 5641 5641 5640 5637 5633 5629 5623 5617 5612 5609 5609 5606 5603 5601 5597 5594 5590 5586 5581 5577 5572 5568 5564 5558 5552 5545 5541
5649 5652 5647 5644 5637 5630 5630 5629 5641 5650 5651 5653 5654 5651 5649 5646 5644 5642 5640 5638 5635 5632 5632 5631 5630 5628 5624 5621 5617 5611 5608 5606 5604 5600 5597 5595 5592 5589 5586 5582 5578 5574 5569 5565 5560 5555 5548 5542 5537
5649 5640 5632 5623 5620 5624 5631 5623 5634 5640 5648 5650 5648 5645 5643 5640 5637 5635 5632 5630 5627 5625 5623 5622 5621 5618 5615 5612 5609 5604 5601 5599 5596 5593 5591 5589 5586 5583 5581 5577 5573 5569 5565 5561 5556 5550 5544 5539 5533
5643 5631 5620 5625 5618 5621 5627 5619 5630 5647 5647 5645 5643 5640 5637 5633 5629 5626 5624 5620 5618 5616 5614 5612 5611 5609 5607 5604 5601 5598 5595 5592 5589 5587 5584 5582 5579 5577 5574 5570 5566 5562 5559 5554 5549 5543 5538 5532 5527
5635 5630 5617 5615 5610 5611 5618 5616 5634 5644 5640 5639 5638 5634 5630 5626 5621 5619 5616 5612 5608 5607 5605 5603 5602 5600 5598 5596 5594 5591 5588 5585 5582 5580 5577 5574 5572 5571 5568 5563 5559 5555 5551 5547 5541 5536 5531 5526 5520
5628 5622 5621 5606 5603 5601 5608 5616 5630 5641 5635 5632 5629 5626 5623 5619 5616 5612 5608 5605 5601 5599 5596 5594 5593 5591 5590 5588 5586 5583 5580 5577 5574 5572 5568 5565 5563 5561 5558 5554 5550 5546 5541 5537 5532 5527 5523 5517 5513
5629 5617 5605 5601 5599 5597 5603 5608 5617 5631 5630 5626 5622 5619 5616 5612 5608 5605 5600 5596 5593 5590 5588 5586 5584 5582 5580 5578 5576 5574 5570 5567 5564 5561 5558 5555 5552 5549 5545 5542 5537 5533 5529 5524 5519 5515 5511 5506 5502
5617 5615 5607 5594 5592 5588 5588 5608 5625 5624 5623 5619 5617 5614 5610 5605 5600 5594 5590 5587 5584 5582 5579 5577 5575 5573 5570 5568 5565 5562 5559 5556 5552 5549 5545 5542 5539 5535 5531 5527 5523 5518 5514 5509 5504 5500 5496 5491 5488
5617 5612 5601 5597 5591 5580 5580 5602 5627 5620 5616 5614 5610 5606 5602 5597 5591 5586 5582 5578 5576 5573 5571 5568 5565 5562 5559 5556 5553 5550 5546 5543 5539 5536 5532 5528 5524 5520 5516 5511 5506 5502 5498 5492 5487 5483 5479 5475 5472